Location: Sternwarte_Laufen
(47.9344°N, 12.9346°E)
Time: 17:33:51
(UTC+02:00)

ISS - Pass Details

Date: 19 May 2018
Orbit: 402 x 407 km, 51.6° (Epoch: 27 May)

Event Time Altitude Azimuth Distance (km) Brightness Sun altitude
Rises 04:04:30 0° 292° (WNW) 2,321 -0.2 -11.3°
Reaches altitude 10° 04:06:35 10° 293° (WNW) 1,459 -1.2 -11.1°
Maximum altitude 04:09:52 86° 21° (NNE) 409 -3.8 -10.7°
Drops below altitude 10° 04:13:08 10° 112° (ESE) 1,454 -0.7 -10.3°
Sets 04:15:12 0° 113° (ESE) 2,312 0.3 -10.0°
